Flag for Austria Weather past 2 weeks in Bruck an der Leitha, Lower Austria, Austria

Now
35 °F

Light snow. Overcast.


Feels Like: 28 °F
Forecast: 32 / 37 °F
Wind: 8 mph from South

Location: Wien / Schwechat-Flughafen

Current Time: Jan 29, 2015 at 5:24:17 AM

Latest Report: Jan 29, 2015 at 4:00 AM


Visibility: 6 mi

Pressure: 29.60 "Hg

Humidity: 68%

Dew point: 25 °F

Location of Bruck an der LeithaLocation

Historic Weather in Bruck an der Leitha — Graph

°F

Bruck an der Leitha temperature yesterday

Maximum temperature yesterday: 41 °F (at 1:00 PM)
Minimum temperature yesterday: 27 °F (at 9:00 PM)
Average temperature yesterday: 36 °F

Past Weeks' High & Low Weather Summary

 TemperatureHumidityPressure
High53 °F (Jan 17, 6:00 AM)100% (Jan 20, 3:00 AM)30.34 "Hg (Jan 20, 3:00 AM)
Low24 °F (Jan 27, 2:00 AM)57% (Jan 15, 1:00 AM)29.59 "Hg (Jan 29, 3:00 AM)
Average37 °F84%30.02 "Hg
* Reported Jan 14 4:00 AM — Jan 29 4:00 AM, Bruck an der Leitha, Weather by CustomWeather, © 2014

Note: Actual official high and low records may vary slightly from our data, if they occured in-between our weather recording intervals... More about our weather records

Advertising

Bruck an der Leitha weather history for previous 24 hours

 ConditionsComfort  
Time TempWeatherWind HumidityBarometerVisibility
4:00 AM
Jan 29
35 °FLight snow. Overcast.8 mph68%29.60 "Hg6 mi
3:00 AM35 °FOvercast.9 mph66%29.59 "Hg25 mi
2:00 AM35 °FOvercast.9 mph66%29.63 "Hg28 mi
1:00 AM34 °FOvercast.12 mph66%29.67 "Hg22 mi
12:00 AM33 °FPassing clouds.9 mph72%29.74 "Hg22 mi
11:00 PM
Jan 28
34 °FPassing clouds.10 mph72%29.76 "Hg22 mi
10:00 PM33 °FPassing clouds.8 mph78%29.80 "Hg19 mi
9:00 PM27 °FPassing clouds.6 mph89%29.86 "Hg16 mi
8:00 PM30 °FPassing clouds.5 mph83%29.91 "Hg18 mi
7:00 PM34 °FPassing clouds.N/A77%29.93 "Hg12 mi
6:00 PM36 °FPassing clouds.5 mph73%29.96 "Hg14 mi
5:00 PM37 °FPassing clouds.5 mph70%29.97 "Hg19 mi
4:00 PM40 °FScattered clouds.7 mph59%29.96 "Hg22 mi
3:00 PM41 °FScattered clouds.7 mph58%29.98 "Hg18 mi
2:00 PM40 °FOvercast.6 mph62%30.01 "Hg19 mi
1:00 PM41 °FOvercast.6 mph62%30.04 "Hg22 mi
12:00 PM41 °FOvercast.8 mph64%30.06 "Hg17 mi
11:00 AM39 °FScattered clouds.7 mph70%30.09 "Hg13 mi
10:00 AM38 °FScattered clouds.7 mph75%30.09 "Hg5 mi
9:00 AM35 °FScattered clouds.6 mph82%30.10 "Hg9 mi
8:00 AM33 °FPassing clouds.6 mph85%30.10 "Hg8 mi
7:00 AM34 °FPassing clouds.8 mph83%30.09 "Hg8 mi
6:00 AM34 °FPassing clouds.7 mph84%30.09 "Hg9 mi
5:00 AM33 °FPassing clouds.5 mph86%30.09 "Hg9 mi
Weather by CustomWeather, © 2014

See weather overviewHow to use our weather pages